Back to catalog

STARLINK-35561

AliveCommunicationsVLEO
NORAD 66105·PAYLOAD·🇺🇸 United States

Launched Oct 19, 2025 from Vandenberg Space Force Base

Loading…

Next Passes (next 24 hours)

TLE

FreshSource: CelesTrak SupGP

Epoch: Sep 14, 2026, 15:07 UTC

1 66105C 25236V   26257.63034722  .00033970  00000+0  10040-2 0  2570
2 66105  53.1572 303.3581 0001368  73.6306 272.8571 15.34363079    13

Track STARLINK-35561 in real time with AllMySat

Download on the App Store